Total_Precipitation_Accumulation
0.02 0.04 0.07 0.10 0.10 0.08 0.02 0.05 0.13 0.19 0.19 0.10 0.02 0.00 0.00 0.00 0.00 0.00 0.00 0.00 0.00 0.00 0.00 0.00 0.00 0.00 0.00 0.00 0.02 0.08 0.10 0.02 0.00 0.00 0.01 0.00 0.01 0.06 0.09 0.07 0.08 0.11 0.09
0.01 0.03 0.06 0.08 0.11 0.09 0.04 0.04 0.05 0.08 0.13 0.15 0.04 0.01 0.00 0.00 0.00 0.00 0.00 0.00 0.00 0.00 0.00 0.03 0.07 0.03 0.01 0.01 0.02 0.06 0.03 0.00 0.00 0.00 0.00 0.00 0.00 0.02 0.04 0.06 0.05 0.01 0.00
0.00 0.02 0.05 0.10 0.11 0.08 0.05 0.04 0.05 0.08 0.13 0.09 0.11 0.16 0.08 0.04 0.00 0.00 0.00 0.00 0.00 0.00 0.07 0.28 0.28 0.05 0.00 0.00 0.01 0.00 0.00 0.00 0.00 0.00 0.00 0.00 0.00 0.00 0.00 0.00 0.00 0.00 0.00
0.00 0.01 0.04 0.12 0.12 0.11 0.04 0.02 0.04 0.06 0.07 0.05 0.04 0.04 0.07 0.07 0.00 0.00 0.00 0.00 0.00 0.08 0.16 0.29 0.20 0.02 0.00 0.00 0.00 0.00 0.00 0.00 0.00 0.00 0.00 0.00 0.00 0.00 0.00 0.00 0.00 0.00 0.00
0.00 0.01 0.05 0.18 0.15 0.15 0.10 0.03 0.02 0.06 0.08 0.06 0.05 0.05 0.05 0.05 0.07 0.06 0.01 0.00 0.00 0.00 0.04 0.20 0.26 0.11 0.00 0.00 0.00 0.00 0.00 0.00 0.00 0.00 0.00 0.00 0.00 0.00 0.00 0.00 0.00 0.00 0.00
0.00 0.00 0.03 0.13 0.15 0.13 0.11 0.08 0.07 0.05 0.05 0.05 0.07 0.08 0.05 0.02 0.04 0.09 0.05 0.02 0.00 0.00 0.01 0.09 0.11 0.02 0.00 0.00 0.00 0.00 0.00 0.00 0.00 0.00 0.00 0.00 0.00 0.00 0.00 0.00 0.00 0.00 0.00
0.00 0.00 0.01 0.05 0.07 0.07 0.08 0.08 0.10 0.11 0.09 0.06 0.07 0.09 0.06 0.01 0.03 0.06 0.07 0.02 0.00 0.00 0.01 0.03 0.07 0.01 0.00 0.00 0.00 0.00 0.00 0.00 0.00 0.00 0.00 0.00 0.00 0.00 0.00 0.00 0.00 0.00 0.00
0.00 0.00 0.00 0.01 0.02 0.03 0.05 0.07 0.10 0.11 0.09 0.09 0.09 0.11 0.06 0.06 0.07 0.10 0.05 0.02 0.01 0.00 0.01 0.02 0.06 0.05 0.01 0.00 0.00 0.00 0.00 0.00 0.00 0.00 0.00 0.00 0.00 0.00 0.00 0.00 0.00 0.00 0.00
0.00 0.00 0.00 0.00 0.00 0.00 0.00 0.01 0.04 0.07 0.08 0.13 0.16 0.09 0.06 0.07 0.08 0.10 0.06 0.03 0.01 0.02 0.05 0.04 0.05 0.06 0.05 0.04 0.00 0.00 0.00 0.00 0.00 0.00 0.00 0.00 0.00 0.00 0.00 0.00 0.00 0.00 0.00
0.00 0.00 0.00 0.00 0.00 0.00 0.00 0.00 0.01 0.04 0.05 0.04 0.02 0.01 0.00 0.00 0.00 0.04 0.04 0.04 0.03 0.03 0.03 0.05 0.05 0.06 0.06 0.04 0.01 0.00 0.00 0.00 0.00 0.00 0.00 0.00 0.00 0.00 0.00 0.00 0.00 0.00 0.00
0.00 0.00 0.00 0.00 0.00 0.00 0.00 0.00 0.00 0.01 0.01 0.01 0.00 0.00 0.00 0.00 0.00 0.00 0.00 0.01 0.02 0.02 0.03 0.05 0.05 0.09 0.10 0.03 0.00 0.00 0.00 0.00 0.00 0.00 0.00 0.00 0.00 0.00 0.00 0.01 0.00 0.00 0.00
0.00 0.00 0.00 0.00 0.00 0.00 0.00 0.00 0.00 0.00 0.00 0.00 0.00 0.00 0.00 0.00 0.00 0.00 0.00 0.00 0.00 0.00 0.00 0.02 0.04 0.04 0.02 0.00 0.00 0.00 0.00 0.00 0.00 0.00 0.00 0.00 0.00 0.00 0.00 0.01 0.01 0.00 0.00
0.00 0.00 0.00 0.00 0.00 0.00 0.00 0.00 0.00 0.00 0.00 0.00 0.01 0.02 0.01 0.00 0.00 0.00 0.00 0.00 0.01 0.00 0.00 0.01 0.03 0.01 0.01 0.00 0.00 0.00 0.00 0.00 0.00 0.00 0.00 0.00 0.00 0.00 0.00 0.01 0.02 0.01 0.00
0.00 0.00 0.00 0.00 0.00 0.00 0.00 0.00 0.00 0.00 0.00 0.00 0.02 0.03 0.03 0.03 0.01 0.00 0.00 0.00 0.00 0.02 0.02 0.04 0.03 0.04 0.09 0.04 0.02 0.01 0.00 0.00 0.00 0.00 0.00 0.00 0.00 0.00 0.00 0.01 0.03 0.02 0.01
0.00 0.00 0.00 0.00 0.00 0.00 0.00 0.00 0.00 0.00 0.00 0.00 0.00 0.00 0.00 0.00 0.00 0.01 0.01 0.01 0.01 0.06 0.08 0.10 0.12 0.16 0.14 0.16 0.12 0.04 0.01 0.01 0.00 0.00 0.00 0.00 0.00 0.00 0.00 0.01 0.02 0.03 0.03
0.00 0.00 0.00 0.00 0.00 0.00 0.00 0.00 0.00 0.00 0.00 0.00 0.01 0.00 0.00 0.00 0.00 0.00 0.00 0.01 0.00 0.01 0.10 0.26 0.31 0.33 0.32 0.26 0.16 0.14 0.08 0.08 0.08 0.08 0.04 0.02 0.01 0.00 0.00 0.02 0.03 0.05 0.05
0.00 0.00 0.00 0.00 0.00 0.00 0.00 0.00 0.00 0.00 0.00 0.00 0.02 0.02 0.00 0.01 0.01 0.01 0.00 0.00 0.00 0.01 0.02 0.06 0.13 0.18 0.18 0.34 0.21 0.25 0.31 0.27 0.19 0.13 0.11 0.07 0.06 0.03 0.01 0.04 0.07 0.09 0.08
0.00 0.00 0.00 0.00 0.00 0.00 0.00 0.00 0.00 0.00 0.00 0.00 0.01 0.04 0.05 0.02 0.04 0.03 0.02 0.01 0.02 0.01 0.01 0.01 0.05 0.09 0.06 0.11 0.10 0.10 0.13 0.19 0.16 0.10 0.06 0.04 0.02 0.02 0.02 0.02 0.05 0.07 0.08
0.00 0.00 0.00 0.00 0.00 0.00 0.00 0.00 0.00 0.00 0.00 0.00 0.01 0.03 0.05 0.08 0.09 0.07 0.04 0.09 0.14 0.13 0.09 0.06 0.04 0.02 0.02 0.05 0.04 0.02 0.01 0.04 0.05 0.06 0.05 0.05 0.02 0.00 0.00 0.00 0.00 0.02 0.04
0.00 0.00 0.00 0.00 0.00 0.00 0.00 0.00 0.00 0.00 0.00 0.01 0.03 0.03 0.07 0.15 0.22 0.19 0.17 0.26 0.21 0.14 0.14 0.12 0.09 0.09 0.07 0.03 0.02 0.01 0.01 0.00 0.01 0.02 0.02 0.02 0.01 0.01 0.00 0.00 0.00 0.00 0.00
0.00 0.00 0.00 0.00 0.00 0.00 0.00 0.00 0.00 0.00 0.00 0.01 0.03 0.05 0.17 0.19 0.23 0.25 0.18 0.17 0.17 0.16 0.15 0.10 0.09 0.12 0.16 0.16 0.09 0.03 0.01 0.01 0.00 0.00 0.00 0.00 0.00 0.00 0.00 0.00 0.00 0.00 0.00
0.00 0.00 0.00 0.00 0.00 0.00 0.00 0.00 0.01 0.00 0.01 0.02 0.04 0.13 0.20 0.26 0.23 0.20 0.16 0.18 0.19 0.25 0.28 0.27 0.22 0.18 0.23 0.29 0.21 0.11 0.03 0.01 0.00 0.00 0.00 0.00 0.00 0.00 0.00 0.00 0.00 0.00 0.00
0.00 0.00 0.00 0.00 0.00 0.00 0.00 0.00 0.00 0.01 0.01 0.04 0.11 0.15 0.14 0.18 0.21 0.21 0.37 0.39 0.28 0.24 0.28 0.34 0.45 0.49 0.42 0.34 0.31 0.34 0.24 0.11 0.03 0.00 0.00 0.00 0.00 0.00 0.00 0.00 0.00 0.00 0.00
0.00 0.00 0.00 0.00 0.00 0.00 0.00 0.00 0.00 0.02 0.06 0.08 0.14 0.13 0.15 0.16 0.16 0.10 0.07 0.28 0.55 0.48 0.35 0.29 0.23 0.20 0.23 0.24 0.28 0.30 0.29 0.21 0.12 0.04 0.00 0.00 0.00 0.00 0.00 0.00 0.00 0.00 0.00
0.00 0.00 0.00 0.00 0.00 0.00 0.00 0.00 0.00 0.02 0.08 0.12 0.18 0.35 0.43 0.30 0.14 0.07 0.03 0.04 0.07 0.10 0.19 0.25 0.20 0.12 0.08 0.09 0.08 0.08 0.10 0.13 0.14 0.13 0.05 0.01 0.01 0.00 0.01 0.01 0.01 0.01 0.01
0.00 0.00 0.00 0.00 0.00 0.00 0.00 0.00 0.02 0.01 0.02 0.03 0.05 0.12 0.12 0.14 0.16 0.11 0.05 0.02 0.00 0.00 0.00 0.00 0.00 0.01 0.02 0.04 0.05 0.06 0.09 0.14 0.10 0.12 0.11 0.04 0.03 0.00 0.01 0.01 0.01 0.00 0.03